MDT,Max TemperatureF,Mean TemperatureF,Min TemperatureF,Max Dew PointF,MeanDew PointF,Min DewpointF,Max Humidity, Mean Humidity, Min Humidity, Max Sea Level PressureIn, Mean Sea Level PressureIn, Min Sea Level PressureIn, Max VisibilityMiles, Mean VisibilityMiles, Min VisibilityMiles, Max Wind SpeedMPH, Mean Wind SpeedMPH, Max Gust SpeedMPH,PrecipitationIn, CloudCover, Events, WindDirDegrees
2013-10-1,74,57,39,41,38,34,89,57,25,30.01,29.89,29.79,10,10,10,23,9,28,0.00,0,,130
2013-10-2,69,55,41,43,37,33,89,59,29,29.94,29.88,29.81,10,10,10,24,7,29,0.00,0,,42
2013-10-3,56,47,38,45,41,34,100,80,59,29.90,29.85,29.79,10,7,2,23,10,29,0.35,6,Rain,42
2013-10-4,38,35,31,39,32,26,100,89,78,30.25,30.02,29.87,10,4,0,37,23,49,0.64,8,Fog-Rain-Snow-Thunderstorm,327
2013-10-5,46,39,31,27,26,23,85,65,45,30.22,30.17,30.11,10,10,10,36,22,48,0.00,2,,313
2013-10-6,64,49,33,36,32,26,85,58,31,30.23,30.19,30.12,10,10,10,22,7,30,0.00,0,,306
2013-10-7,78,55,31,43,37,30,92,57,22,30.11,29.97,29.79,10,10,10,15,4,18,0.00,0,,151
2013-10-8,77,60,42,43,39,29,89,53,16,29.79,29.72,29.62,10,10,10,15,5,18,0.00,0,,53
2013-10-9,61,51,41,41,38,35,83,65,47,29.96,29.89,29.71,10,10,10,20,10,23,0.00,2,,12
2013-10-10,57,47,36,47,42,34,100,83,66,29.91,29.66,29.32,10,9,3,24,7,33,0.66,3,Rain-Thunderstorm,40
2013-10-11,51,44,37,48,41,32,100,77,54,30.09,29.61,29.26,10,7,2,33,17,47,1.66,7,Rain,304
2013-10-12,59,45,31,42,36,30,92,72,51,30.20,30.13,30.06,10,10,10,16,8,21,0.02,3,,142
2013-10-13,66,52,37,45,41,36,93,71,48,30.14,30.02,29.85,10,10,10,28,15,36,T,2,,119
2013-10-14,50,43,36,47,39,27,93,82,70,30.23,29.92,29.75,10,9,2,33,20,45,0.37,7,Rain-Thunderstorm,313
2013-10-15,41,37,32,29,27,26,82,71,59,30.35,30.27,30.18,10,10,6,28,13,37,T,7,Snow,316
2013-10-16,56,41,26,30,26,20,92,58,24,30.21,30.09,29.97,10,10,9,17,6,25,0.00,0,,310
2013-10-17,46,39,32,32,29,27,82,68,53,30.19,30.11,30.04,10,10,10,15,7,20,0.00,5,,340
2013-10-18,48,39,30,31,27,20,100,69,37,30.23,30.15,30.08,10,9,1,26,10,35,0.02,4,Snow,300
2013-10-19,62,47,31,32,28,26,85,55,25,30.07,29.94,29.84,10,10,9,18,7,24,0.00,1,,281
2013-10-20,51,43,34,37,33,27,92,66,39,30.11,29.98,29.84,10,10,10,22,11,31,T,7,,316
2013-10-21,57,44,31,35,33,30,96,66,36,30.13,30.08,30.01,10,10,10,22,7,28,T,7,,313
2013-10-22,66,52,38,37,35,32,85,58,30,30.13,30.06,29.99,10,10,10,20,8,25,0.00,3,,331
2013-10-23,64,48,31,38,34,31,100,65,30,30.25,30.14,30.06,10,10,8,18,7,22,0.00,0,,331
2013-10-24,57,44,30,39,34,28,100,74,47,30.36,30.27,30.20,10,7,0,10,4,13,0.00,2,Fog,121
2013-10-25,71,50,28,39,32,27,100,61,22,30.22,30.14,30.01,10,8,1,18,7,24,0.00,2,,334
2013-10-26,65,48,31,37,33,30,92,60,28,30.32,30.20,30.03,10,10,10,13,3,14,0.00,0,,194
2013-10-27,71,50,29,37,26,19,92,54,15,30.01,29.86,29.76,10,7,1,31,9,39,0.00,1,,302
2013-10-28,40,34,28,34,28,26,100,90,79,30.20,30.11,29.91,10,7,2,24,13,29,T,8,Rain,82
2013-10-29,41,35,29,34,31,28,100,90,79,30.16,30.03,29.92,10,10,6,15,10,18,0.00,8,,106
2013-10-30,54,43,32,37,33,30,100,71,41,29.97,29.84,29.74,10,7,0,22,8,28,0.18,5,Fog-Rain-Snow,294
2013-10-31,55,45,34,38,31,26,82,59,35,29.85,29.77,29.70,10,10,9,31,17,43,0.04,4,Rain,286